This demonstration page uses our WeatherBlox Daily Observations layout. Learn more.

Left ArrowRight Arrow

Hourly Observations for June 3, 2016

Temp ( °F °C ) Dew Point ( °F °C ) Humidity (%) Winds ( mph kmh ) Pressure ( in mb ) Visibility ( mi km ) Precip ( " mm )
6:30 am 06:30 Cloudy with Fog 64 18 64 18 100 100 Calm 30.06 1018 0 0 N/A
6:45 am 06:45 Cloudy with Fog 64 18 64 18 100 100 Calm 30.06 1018 0 0 N/A
7:22 am 07:22 Cloudy with Mist and Fog 64 18 64 18 100 100 Calm 30.06 1018 1 1 N/A
7:37 am 07:37 Cloudy with Mist and Fog 63 17 63 17 100 100 Calm 30.06 1018 1 2 N/A
7:46 am 07:46 Cloudy with Mist and Fog 63 17 63 17 100 100 Calm 30.06 1018 2 3 N/A
7:53 am 07:53 Mostly Cloudy with Mist and Fog 63 17 63 17 100 100 Calm 30.06 1018 3 5 N/A
8:17 am 08:17 Mostly Cloudy with Mist and Fog 63 17 63 17 100 100 Calm 30.06 1018 5 8 N/A
8:46 am 08:46 Mostly Cloudy with Mist and Fog 64 18 64 18 100 100 Calm 30.09 1019 5 8 N/A
9:33 am 09:33 Partly Cloudy 64 18 64 18 100 100 Calm 30.09 1019 7 11 N/A
9:47 am 09:47 Partly Cloudy 66 19 66 19 100 100 Calm 30.06 1018 7 11 N/A
10:46 am 10:46 Partly Cloudy 72 22 66 19 83 83 Calm 30.06 1018 10 16 N/A
11:48 am 11:48 Partly Cloudy 77 25 66 19 69 69 Calm 30.06 1018 10 16 N/A
12:59 pm 12:59 Partly Cloudy 81 27 57 14 45 45 Calm 30.03 1017 10 16 N/A
1:47 pm 13:47 Partly Cloudy 81 27 55 13 42 42 SSW 6 9 30.03 1017 10 16 N/A
2:45 pm 14:45 Mostly Sunny 82 28 57 14 42 42 SW 10 17 30.03 1017 10 16 N/A
3:58 pm 15:58 Partly Cloudy 81 27 57 14 45 45 SW 8 13 30.00 1016 10 16 N/A
4:45 pm 16:45 Mostly Cloudy 82 28 57 14 42 42 SSW 9 15 30.00 1016 10 16 N/A
5:45 pm 17:45 Mostly Sunny 81 27 57 14 45 45 SW 8 13 30.00 1016 10 16 N/A
6:45 pm 18:45 Mostly Sunny 77 25 59 15 54 54 WSW 6 9 30.00 1016 10 16 N/A
7:45 pm 19:45 Mostly Cloudy 77 25 59 15 54 54 SW 8 13 30.00 1016 10 16 N/A
9:45 pm 21:45 Mostly Clear 72 22 61 16 69 69 SW 5 7 30.00 1016 10 16 N/A

Powered by AerisWeather